CFG6XY EDDF-LHBP

Flight info

Callsign CFG6XY
Flight time 1h 11m
Altitude 37000
Route SULUS7S/18 SULUS Z650 VEMUT DCT PEPIK DCT NIT M748 ARFOX
Aircraft A319/M-SDE2FGHIJ1RWXY/HB1

Departure

Time 2026-05-05 16:26
Airport Frankfurt Main Airport (EDDF)

Arrival

Time 2026-05-05 17:38
Airport Budapest Liszt Ferenc International Airport (LHBP)
Time Latitude Longitude Altitude Speed Heading
2026-05-05 15:57 50.04958 8.59077 363 ft 0 kts 159°
2026-05-05 15:58 50.04959 8.59077 363 ft 0 kts 159°
2026-05-05 16:04 50.04974 8.59068 367 ft 4 kts 159°
2026-05-05 16:04 50.04994 8.59056 362 ft 3 kts 160°
2026-05-05 16:04 50.05016 8.59052 362 ft 4 kts 222°
2026-05-05 16:04 50.05023 8.59066 360 ft 1 kts 249°
2026-05-05 16:09 50.05011 8.59015 361 ft 15 kts 250°
2026-05-05 16:09 50.04974 8.58856 362 ft 16 kts 249°
2026-05-05 16:10 50.04933 8.58690 361 ft 18 kts 250°
2026-05-05 16:10 50.04890 8.58506 361 ft 19 kts 249°
2026-05-05 16:10 50.04840 8.58298 362 ft 21 kts 250°
2026-05-05 16:10 50.04790 8.58086 359 ft 21 kts 250°
2026-05-05 16:11 50.04718 8.57898 361 ft 20 kts 229°
2026-05-05 16:11 50.04563 8.57290 359 ft 24 kts 250°
2026-05-05 16:12 50.04507 8.57056 360 ft 22 kts 249°
2026-05-05 16:12 50.04402 8.56616 359 ft 26 kts 250°
2026-05-05 16:13 50.04243 8.55955 359 ft 19 kts 249°
2026-05-05 16:13 50.04198 8.55768 353 ft 18 kts 250°
2026-05-05 16:13 50.04169 8.55646 352 ft 5 kts 250°
2026-05-05 16:14 50.04162 8.55617 354 ft 0 kts 250°
2026-05-05 16:15 50.04154 8.55583 351 ft 3 kts 250°
2026-05-05 16:16 50.04133 8.55493 355 ft 5 kts 250°
2026-05-05 16:16 50.03972 8.55463 352 ft 15 kts 169°
2026-05-05 16:17 50.03876 8.55232 357 ft 5 kts 250°
2026-05-05 16:17 50.03875 8.55228 356 ft 0 kts 250°
2026-05-05 16:18 50.03874 8.55223 355 ft 0 kts 250°
2026-05-05 16:18 50.03874 8.55221 355 ft 1 kts 250°
2026-05-05 16:18 50.03818 8.54984 351 ft 14 kts 250°
2026-05-05 16:19 50.03786 8.54848 350 ft 11 kts 250°
2026-05-05 16:19 50.03759 8.54735 354 ft 11 kts 249°
2026-05-05 16:19 50.03703 8.54505 352 ft 11 kts 249°
2026-05-05 16:20 50.03767 8.54354 349 ft 10 kts 339°
2026-05-05 16:20 50.03775 8.54117 347 ft 14 kts 250°
2026-05-05 16:21 50.03707 8.53833 349 ft 14 kts 250°
2026-05-05 16:22 50.03582 8.53323 338 ft 17 kts 249°
2026-05-05 16:22 50.03515 8.53045 336 ft 11 kts 250°
2026-05-05 16:23 50.03465 8.52846 337 ft 6 kts 245°
2026-05-05 16:23 50.03447 8.52784 333 ft 6 kts 246°
2026-05-05 16:23 50.03434 8.52734 333 ft 0 kts 249°
2026-05-05 16:24 50.03428 8.52709 334 ft 5 kts 249°
2026-05-05 16:24 50.03386 8.52591 334 ft 2 kts 188°
2026-05-05 16:25 50.03382 8.52592 334 ft 0 kts 179°
2026-05-05 16:25 50.03360 8.52593 334 ft 22 kts 179°
2026-05-05 16:26 50.01897 8.52610 627 ft 152 kts 180°
2026-05-05 16:26 49.99760 8.52630 2254 ft 168 kts 183°
2026-05-05 16:27 49.98509 8.52625 2808 ft 192 kts 182°
2026-05-05 16:27 49.97097 8.52956 3351 ft 223 kts 158°
2026-05-05 16:27 49.95926 8.54612 4326 ft 238 kts 123°
2026-05-05 16:27 49.95151 8.56899 5513 ft 240 kts 120°
2026-05-05 16:28 49.94400 8.59234 6664 ft 245 kts 112°
2026-05-05 16:28 49.94012 8.61879 7550 ft 264 kts 97°
2026-05-05 16:28 49.93862 8.64827 8371 ft 280 kts 99°
2026-05-05 16:28 49.93363 8.67774 9470 ft 284 kts 114°
2026-05-05 16:29 49.92387 8.70459 10418 ft 293 kts 128°
2026-05-05 16:29 49.90892 8.72766 10936 ft 315 kts 144°
2026-05-05 16:29 49.89109 8.74838 11756 ft 326 kts 139°
2026-05-05 16:29 49.87640 8.77566 12723 ft 333 kts 124°
2026-05-05 16:30 49.86510 8.80736 13704 ft 338 kts 120°
2026-05-05 16:30 49.85380 8.83957 14577 ft 342 kts 120°
2026-05-05 16:30 49.84218 8.87208 15458 ft 346 kts 121°
2026-05-05 16:30 49.83049 8.90433 16312 ft 350 kts 121°
2026-05-05 16:31 49.81845 8.93730 17165 ft 354 kts 121°
2026-05-05 16:31 49.80623 8.97061 18016 ft 358 kts 121°
2026-05-05 16:31 49.79368 9.00484 18767 ft 363 kts 121°
2026-05-05 16:31 49.78134 9.03857 19484 ft 367 kts 121°
2026-05-05 16:32 49.76881 9.07321 20210 ft 372 kts 120°
2026-05-05 16:32 49.75907 9.11065 20944 ft 379 kts 109°
2026-05-05 16:32 49.75266 9.15040 21672 ft 384 kts 106°
2026-05-05 16:32 49.74631 9.19072 22410 ft 387 kts 106°
2026-05-05 16:33 49.73983 9.23134 23150 ft 391 kts 106°
2026-05-05 16:33 49.73324 9.27227 23785 ft 394 kts 106°
2026-05-05 16:33 49.72652 9.31367 24384 ft 397 kts 107°
2026-05-05 16:33 49.71971 9.35523 24989 ft 400 kts 107°
2026-05-05 16:34 49.71282 9.39701 25581 ft 402 kts 107°
2026-05-05 16:34 49.70589 9.43903 26154 ft 405 kts 107°
2026-05-05 16:34 49.69893 9.48128 26737 ft 407 kts 107°
2026-05-05 16:34 49.69203 9.52323 27265 ft 410 kts 107°
2026-05-05 16:35 49.68487 9.56664 27806 ft 414 kts 107°
2026-05-05 16:35 49.67788 9.60986 28346 ft 418 kts 105°
2026-05-05 16:35 49.67426 9.65412 28873 ft 425 kts 95°
2026-05-05 16:35 49.67565 9.70005 29402 ft 432 kts 85°
2026-05-05 16:36 49.68215 9.74578 29911 ft 439 kts 78°
2026-05-05 16:36 49.69033 9.79137 30340 ft 442 kts 78°
2026-05-05 16:36 49.69842 9.83719 30754 ft 444 kts 78°
2026-05-05 16:36 49.70650 9.88346 31166 ft 447 kts 79°
2026-05-05 16:37 49.71621 9.92954 31560 ft 454 kts 71°
2026-05-05 16:37 49.73049 9.97358 31919 ft 462 kts 62°
2026-05-05 16:37 49.74889 10.01460 32401 ft 465 kts 57°
2026-05-05 16:37 49.76791 10.05523 32900 ft 466 kts 57°
2026-05-05 16:38 49.78686 10.09600 33449 ft 465 kts 57°
2026-05-05 16:38 49.80539 10.13622 34006 ft 464 kts 58°
2026-05-05 16:38 49.82406 10.17696 34505 ft 464 kts 57°
2026-05-05 16:38 49.84273 10.21779 34986 ft 464 kts 57°
2026-05-05 16:39 49.86137 10.25857 35428 ft 464 kts 57°
2026-05-05 16:39 49.88001 10.29930 35867 ft 464 kts 57°
2026-05-05 16:39 49.89864 10.34003 36292 ft 464 kts 57°
2026-05-05 16:39 49.91103 10.36711 36576 ft 464 kts 57°
2026-05-05 16:40 49.92970 10.40791 36995 ft 464 kts 57°
2026-05-05 16:40 49.94837 10.44877 37403 ft 464 kts 57°
2026-05-05 16:40 49.96705 10.48975 37824 ft 464 kts 57°
2026-05-05 16:40 49.98572 10.53074 38202 ft 464 kts 56°
2026-05-05 16:41 50.00430 10.57164 38592 ft 463 kts 56°
2026-05-05 16:41 50.02284 10.61262 38768 ft 465 kts 56°
2026-05-05 16:41 50.04003 10.65532 38806 ft 465 kts 67°
2026-05-05 16:41 50.05076 10.70234 38808 ft 461 kts 80°
2026-05-05 16:42 50.05482 10.80054 38817 ft 453 kts 99°
2026-05-05 16:42 50.04020 10.89500 38812 ft 448 kts 111°
2026-05-05 16:43 50.02087 10.98712 38802 ft 448 kts 112°
2026-05-05 16:43 50.00125 11.07907 38796 ft 448 kts 112°
2026-05-05 16:44 49.98159 11.17040 38801 ft 448 kts 112°
2026-05-05 16:44 49.96176 11.26244 38796 ft 449 kts 112°
2026-05-05 16:45 49.94218 11.35472 38787 ft 449 kts 112°
2026-05-05 16:45 49.92305 11.44715 38773 ft 450 kts 110°
2026-05-05 16:46 49.90598 11.54030 38754 ft 453 kts 109°
2026-05-05 16:46 49.88926 11.63465 38757 ft 454 kts 109°
2026-05-05 16:47 49.87696 11.73117 38757 ft 459 kts 101°
2026-05-05 16:47 49.86835 11.82931 38762 ft 459 kts 101°
2026-05-05 16:48 49.85952 11.92743 38754 ft 460 kts 101°
2026-05-05 16:48 49.85062 12.02561 38765 ft 460 kts 101°
2026-05-05 16:49 49.84176 12.12380 38773 ft 460 kts 101°
2026-05-05 16:49 49.83282 12.22203 38768 ft 460 kts 101°
2026-05-05 16:50 49.82379 12.31958 38767 ft 460 kts 101°
2026-05-05 16:50 49.81473 12.41780 38762 ft 461 kts 101°
2026-05-05 16:51 49.80034 12.51423 38768 ft 458 kts 110°
2026-05-05 16:51 49.78146 12.60842 38762 ft 458 kts 110°
2026-05-05 16:52 49.76260 12.70244 38767 ft 458 kts 110°
2026-05-05 16:52 49.74365 12.79646 38744 ft 458 kts 110°
2026-05-05 16:53 49.72461 12.89053 38752 ft 459 kts 110°
2026-05-05 16:53 49.70551 12.98472 38758 ft 459 kts 110°
2026-05-05 16:54 49.68643 13.07826 38765 ft 459 kts 111°
2026-05-05 16:54 49.66706 13.17225 38767 ft 459 kts 111°
2026-05-05 16:55 49.64771 13.26624 38771 ft 459 kts 111°
2026-05-05 16:55 49.62831 13.36015 38772 ft 460 kts 111°
2026-05-05 16:56 49.60879 13.45411 38774 ft 460 kts 111°
2026-05-05 16:56 49.58920 13.54792 38773 ft 459 kts 111°
2026-05-05 16:57 49.56945 13.64180 38772 ft 460 kts 111°
2026-05-05 16:57 49.54964 13.73533 38775 ft 460 kts 111°
2026-05-05 16:58 49.52976 13.82891 38780 ft 459 kts 111°
2026-05-05 16:58 49.50996 13.92185 38782 ft 459 kts 111°
2026-05-05 16:59 49.49016 14.01465 38772 ft 459 kts 111°
2026-05-05 16:59 49.47012 14.10800 38776 ft 460 kts 111°
2026-05-05 17:00 49.44996 14.20132 38772 ft 460 kts 111°
2026-05-05 17:00 49.42986 14.29411 38774 ft 460 kts 111°
2026-05-05 17:01 49.40955 14.38725 38776 ft 460 kts 111°
2026-05-05 17:01 49.38915 14.48034 38768 ft 460 kts 111°
2026-05-05 17:02 49.36870 14.57336 38771 ft 460 kts 111°
2026-05-05 17:02 49.34817 14.66634 38767 ft 460 kts 111°
2026-05-05 17:03 49.32758 14.75918 38765 ft 460 kts 111°
2026-05-05 17:03 49.30702 14.85185 38754 ft 460 kts 111°
2026-05-05 17:04 49.28630 14.94458 38760 ft 459 kts 111°
2026-05-05 17:04 49.26545 15.03709 38763 ft 458 kts 111°
2026-05-05 17:05 49.24456 15.12928 38759 ft 458 kts 111°
2026-05-05 17:05 49.22366 15.22136 38752 ft 458 kts 111°
2026-05-05 17:06 49.20282 15.31283 38746 ft 458 kts 111°
2026-05-05 17:06 49.18182 15.40468 38744 ft 458 kts 111°
2026-05-05 17:07 49.16075 15.49657 38746 ft 458 kts 111°
2026-05-05 17:07 49.13960 15.58827 38740 ft 458 kts 112°
2026-05-05 17:08 49.11835 15.67992 38729 ft 457 kts 111°
2026-05-05 17:08 49.09711 15.77137 38731 ft 457 kts 111°
2026-05-05 17:09 49.07581 15.86274 38738 ft 457 kts 112°
2026-05-05 17:09 49.05428 15.95413 38792 ft 457 kts 112°
2026-05-05 17:10 49.03273 16.04541 38783 ft 457 kts 112°
2026-05-05 17:10 49.01130 16.13580 38772 ft 457 kts 112°
2026-05-05 17:11 48.98968 16.22683 38770 ft 457 kts 112°
2026-05-05 17:11 48.96805 16.31770 38762 ft 457 kts 111°
2026-05-05 17:12 48.94636 16.40850 38760 ft 456 kts 112°
2026-05-05 17:12 48.92449 16.49918 38763 ft 456 kts 112°
2026-05-05 17:13 48.90256 16.58967 38766 ft 456 kts 113°
2026-05-05 17:13 48.88056 16.68026 38770 ft 456 kts 112°
2026-05-05 17:14 48.85852 16.77075 38775 ft 457 kts 112°
2026-05-05 17:14 48.83641 16.86116 38778 ft 456 kts 112°
2026-05-05 17:15 48.81442 16.95098 38782 ft 457 kts 112°
2026-05-05 17:15 48.79207 17.04137 38797 ft 457 kts 114°
2026-05-05 17:16 48.76049 17.12397 38798 ft 452 kts 129°
2026-05-05 17:16 48.72247 17.19995 38798 ft 453 kts 130°
2026-05-05 17:17 48.68440 17.27619 38796 ft 454 kts 130°
2026-05-05 17:17 48.64622 17.35224 38734 ft 453 kts 129°
2026-05-05 17:18 48.62720 17.39011 38143 ft 452 kts 130°
2026-05-05 17:18 48.60813 17.42796 37365 ft 452 kts 130°
2026-05-05 17:18 48.58907 17.46568 36554 ft 454 kts 130°
2026-05-05 17:18 48.56978 17.50378 35738 ft 455 kts 130°
2026-05-05 17:19 48.55077 17.54129 34948 ft 456 kts 130°
2026-05-05 17:19 48.53143 17.57944 34120 ft 458 kts 130°
2026-05-05 17:19 48.51174 17.61824 33112 ft 461 kts 130°
2026-05-05 17:19 48.49239 17.65632 32092 ft 465 kts 130°
2026-05-05 17:20 48.47284 17.69483 31382 ft 460 kts 130°
2026-05-05 17:20 48.45353 17.73285 30706 ft 455 kts 129°
2026-05-05 17:20 48.43430 17.77056 30063 ft 450 kts 129°
2026-05-05 17:20 48.41525 17.80783 29294 ft 447 kts 129°
2026-05-05 17:21 48.39637 17.84474 28554 ft 443 kts 130°
2026-05-05 17:21 48.37767 17.88123 27880 ft 438 kts 130°
2026-05-05 17:21 48.35911 17.91743 27035 ft 436 kts 129°
2026-05-05 17:22 48.32190 17.98976 25171 ft 438 kts 130°
2026-05-05 17:22 48.30324 18.02592 24247 ft 439 kts 130°
2026-05-05 17:22 48.28429 18.06202 23320 ft 439 kts 131°
2026-05-05 17:22 48.26477 18.09665 22560 ft 430 kts 134°
2026-05-05 17:23 48.25163 18.11883 22042 ft 427 kts 134°
2026-05-05 17:23 48.23173 18.15138 21348 ft 421 kts 135°
2026-05-05 17:23 48.21186 18.18339 20637 ft 417 kts 136°
2026-05-05 17:23 48.19221 18.21508 19965 ft 413 kts 135°
2026-05-05 17:24 48.16663 18.25677 19153 ft 408 kts 135°
2026-05-05 17:24 48.14763 18.28815 18585 ft 404 kts 135°
2026-05-05 17:24 48.12890 18.31931 17987 ft 401 kts 134°
2026-05-05 17:24 48.11638 18.34019 17551 ft 398 kts 134°
2026-05-05 17:25 48.09797 18.37082 16955 ft 392 kts 134°
2026-05-05 17:25 48.08594 18.39081 16558 ft 389 kts 135°
2026-05-05 17:25 48.06186 18.43062 15764 ft 382 kts 136°
2026-05-05 17:25 48.04408 18.45985 15187 ft 377 kts 135°
2026-05-05 17:26 48.02651 18.48869 14595 ft 373 kts 135°
2026-05-05 17:26 48.00916 18.51717 13997 ft 368 kts 136°
2026-05-05 17:26 47.99202 18.54532 13363 ft 364 kts 135°
2026-05-05 17:26 47.97397 18.57122 12685 ft 356 kts 145°
2026-05-05 17:27 47.95355 18.58946 12444 ft 337 kts 156°
2026-05-05 17:27 47.93299 18.60468 12158 ft 324 kts 156°
2026-05-05 17:27 47.91297 18.61969 11670 ft 319 kts 156°
2026-05-05 17:27 47.89324 18.63458 11147 ft 316 kts 156°
2026-05-05 17:28 47.87372 18.64925 10762 ft 309 kts 156°
2026-05-05 17:28 47.85499 18.66332 10640 ft 294 kts 157°
2026-05-05 17:28 47.83711 18.67671 10491 ft 282 kts 157°
2026-05-05 17:28 47.81975 18.68964 10176 ft 277 kts 158°
2026-05-05 17:29 47.80260 18.70238 9818 ft 274 kts 158°
2026-05-05 17:29 47.78557 18.71500 9404 ft 272 kts 158°
2026-05-05 17:29 47.76870 18.72747 8988 ft 270 kts 158°
2026-05-05 17:29 47.75193 18.73985 8567 ft 268 kts 158°
2026-05-05 17:30 47.73597 18.75398 8156 ft 269 kts 147°
2026-05-05 17:30 47.72269 18.77374 7747 ft 272 kts 137°
2026-05-05 17:30 47.71020 18.79471 7331 ft 269 kts 137°
2026-05-05 17:30 47.69794 18.81513 6946 ft 266 kts 136°
2026-05-05 17:31 47.68577 18.83476 6823 ft 252 kts 138°
2026-05-05 17:31 47.67398 18.85344 6561 ft 245 kts 137°
2026-05-05 17:31 47.66255 18.87207 6215 ft 242 kts 137°
2026-05-05 17:31 47.65139 18.89039 5960 ft 236 kts 137°
2026-05-05 17:32 47.64053 18.90823 5741 ft 229 kts 137°
2026-05-05 17:32 47.63010 18.92533 5586 ft 220 kts 137°
2026-05-05 17:32 47.61996 18.94191 5334 ft 215 kts 137°
2026-05-05 17:32 47.60998 18.95822 5063 ft 212 kts 137°
2026-05-05 17:33 47.60008 18.97440 4794 ft 212 kts 137°
2026-05-05 17:33 47.59018 18.99058 4507 ft 212 kts 137°
2026-05-05 17:33 47.58032 19.00668 4229 ft 211 kts 137°
2026-05-05 17:33 47.57045 19.02279 3948 ft 212 kts 137°
2026-05-05 17:34 47.56056 19.03893 3672 ft 211 kts 137°
2026-05-05 17:34 47.55066 19.05506 3395 ft 211 kts 137°
2026-05-05 17:34 47.54087 19.07101 3127 ft 210 kts 138°
2026-05-05 17:34 47.53121 19.08675 2856 ft 210 kts 137°
2026-05-05 17:35 47.52139 19.10275 2579 ft 204 kts 137°
2026-05-05 17:35 47.51200 19.11803 2315 ft 198 kts 137°
2026-05-05 17:35 47.50305 19.13259 2046 ft 187 kts 138°
2026-05-05 17:35 47.49462 19.14631 1812 ft 174 kts 137°
2026-05-05 17:36 47.48686 19.15891 1600 ft 161 kts 138°
2026-05-05 17:36 47.47962 19.17067 1396 ft 149 kts 137°
2026-05-05 17:36 47.47279 19.18173 1198 ft 143 kts 137°
2026-05-05 17:36 47.46607 19.19259 1004 ft 142 kts 137°
2026-05-05 17:37 47.45939 19.20345 816 ft 143 kts 135°
2026-05-05 17:37 47.45274 19.21425 597 ft 142 kts 136°
2026-05-05 17:37 47.44617 19.22499 463 ft 133 kts 136°
2026-05-05 17:37 47.44043 19.23413 455 ft 107 kts 133°
2026-05-05 17:38 47.43600 19.24129 453 ft 84 kts 132°
2026-05-05 17:38 47.43302 19.24610 454 ft 51 kts 132°
2026-05-05 17:38 47.43123 19.24904 457 ft 26 kts 129°
2026-05-05 17:38 47.43132 19.25103 458 ft 16 kts 44°
2026-05-05 17:39 47.43200 19.25195 457 ft 15 kts 43°
2026-05-05 17:39 47.43282 19.25306 458 ft 17 kts 42°
2026-05-05 17:39 47.43373 19.25428 458 ft 16 kts 42°
2026-05-05 17:39 47.43462 19.25547 456 ft 18 kts 42°
2026-05-05 17:40 47.43555 19.25671 457 ft 18 kts 42°
2026-05-05 17:40 47.43646 19.25792 458 ft 18 kts 42°
2026-05-05 17:40 47.43733 19.25922 458 ft 17 kts 67°
2026-05-05 17:40 47.43675 19.26069 457 ft 16 kts 133°
2026-05-05 17:41 47.43601 19.26179 458 ft 15 kts 148°
2026-05-05 17:41 47.43522 19.26274 458 ft 13 kts 131°
2026-05-05 17:41 47.43477 19.26283 458 ft 3 kts 221°
2026-05-05 17:41 47.43459 19.26259 457 ft 1 kts 223°
2026-05-05 17:42 47.43451 19.26248 458 ft 0 kts 223°